Terminal Aerodrome Forecast
Issued by NWS Los Angeles, CA

Home | Current Version | Previous Version | Text Only | Print | Product List | Glossary On
Versions: 1 2 3 4 5 6 7 8 9 10 11 12 13 14 15 16 17 18 19 20 21 22
000
FTUS46 KLOX 061100
TAFSMX
TAF
KSMX 061128Z 0612/0712 30008KT P6SM OVC025
     FM062000 30015G20KT P6SM SCT025 BKN035
     FM070100 31010KT P6SM BKN025 OVC035
     FM070600 VRB03KT P6SM SCT015 OVC025=

USA.gov is the U.S. government's official web portal to all federal, state and local government web resources and services.